Location: Kumla
(59.1265°N, 15.1401°E)
Time: 10:32:22
(UTC+02:00)

OTV 5 (USA 277) - Visible Passes

Search period start: 16 June 2019 00:00
Search period end: 26 June 2019 00:00
Orbit: 310 x 325 km, 54.5° (Epoch: 08 May)

Date Brightness Start Highest point End Pass type
(mag) Time Alt. Az. Time Alt. Az. Time Alt. Az.
16 Jun ? 01:41:25 10° S 01:42:57 14° SSE 01:44:31 10° ESE visible
17 Jun ? 01:55:17 10° SSW 01:57:26 20° SSE 01:59:33 10° ESE visible
18 Jun ? 00:37:29 10° SSE 00:38:17 11° SSE 00:39:15 10° SE visible
18 Jun ? 02:09:34 10° SW 02:11:58 26° SSE 02:14:22 10° ESE visible
19 Jun ? 00:50:49 10° SSW 00:52:44 17° SSE 00:54:39 10° ESE visible
20 Jun ? 01:04:57 10° SW 01:07:14 23° SSE 01:09:32 10° ESE visible
20 Jun ? 23:46:29 10° S 23:48:03 14° SSE 23:49:37 10° ESE visible
21 Jun ? 01:19:20 10° SW 01:21:48 28° S 01:24:16 10° ESE visible
22 Jun ? 00:00:23 10° SSW 00:02:31 20° SSE 00:04:40 10° ESE visible
22 Jun ? 01:33:52 10° WSW 01:36:23 31° S 01:38:54 10° ESE visible
23 Jun ? 00:14:39 10° SW 00:17:04 26° SSE 00:19:27 10° ESE visible
23 Jun ? 01:48:29 10° WSW 01:50:58 29° S 01:53:27 10° SE visible
24 Jun ? 00:29:08 10° WSW 00:31:38 30° S 00:34:08 10° ESE visible
24 Jun ? 02:03:12 10° WSW 02:05:32 24° SSW 02:07:52 10° SE visible
25 Jun ? 00:43:43 10° WSW 00:46:14 31° S 00:48:44 10° ESE visible
